TimeEAT,TemperatureF,Dew PointF,Humidity,Sea Level PressureIn,VisibilityMPH,Wind Direction,Wind SpeedMPH,Gust SpeedMPH,PrecipitationIn,Events,Conditions,WindDirDegrees,DateUTC
1:00 AM,82.4,73.4,74,29.83,-9999.0,SSE,9.2,-,N/A,,Clear,160,2012-11-17 22:00:00
2:00 AM,80.6,73.4,79,29.83,6.2,South,6.9,-,N/A,,Partly Cloudy,180,2012-11-17 23:00:00
3:00 AM,79,73,78,29.83,19,South,6.9,,,,Scattered Clouds,170,2012-11-18 00:00:00
4:00 AM,78.8,73.4,83,29.83,6.2,South,4.6,-,N/A,,Partly Cloudy,170,2012-11-18 01:00:00
5:00 AM,78.8,73.4,83,29.86,6.2,South,4.6,-,N/A,,Mostly Cloudy,180,2012-11-18 02:00:00
7:00 AM,78.8,75.2,89,29.89,6.2,SSE,2.3,-,N/A,,Scattered Clouds,160,2012-11-18 04:00:00
8:00 AM,82.4,75.2,79,29.92,6.2,South,4.6,-,N/A,,Mostly Cloudy,190,2012-11-18 05:00:00
9:00 AM,83,74,67,29.91,25,SE,6.9,,,,Mostly Cloudy,140,2012-11-18 06:00:00
10:00 AM,84.2,73.4,70,29.92,6.2,Calm,Calm,-,N/A,,Mostly Cloudy,0,2012-11-18 07:00:00
11:00 AM,82.4,75.2,79,29.92,6.2,Calm,Calm,-,N/A,Rain,Light Rain,0,2012-11-18 08:00:00
1:00 PM,87.8,71.6,58,29.86,6.2,ESE,3.5,-,N/A,,Mostly Cloudy,120,2012-11-18 10:00:00
2:00 PM,91.4,71.6,52,29.83,6.2,North,5.8,-,N/A,,Mostly Cloudy,360,2012-11-18 11:00:00
3:00 PM,89,74,52,29.80,25,SW,4.6,,,,Partly Cloudy,230,2012-11-18 12:00:00
4:00 PM,91.4,69.8,49,29.80,6.2,West,3.5,-,N/A,,Scattered Clouds,270,2012-11-18 13:00:00
5:00 PM,-9999,-9999,N/A,29.80,6.2,Calm,Calm,-,N/A,,Scattered Clouds,0,2012-11-18 14:00:00
7:00 PM,86.0,73.4,66,29.80,6.2,Calm,Calm,-,N/A,,Scattered Clouds,0,2012-11-18 16:00:00
8:00 PM,84.2,75.2,74,29.80,6.2,Calm,Calm,-,N/A,,Scattered Clouds,0,2012-11-18 17:00:00
9:00 PM,85,74,61,29.82,19,Calm,Calm,,,,Scattered Clouds,,2012-11-18 18:00:00
10:00 PM,84.2,71.6,66,29.83,-9999.0,East,3.5,-,N/A,,Clear,90,2012-11-18 19:00:00
11:00 PM,84.2,71.6,66,29.83,-9999.0,Calm,Calm,-,N/A,,Clear,0,2012-11-18 20:00:00